Location: Unspecified
(52.4292°N, 19.3359°E)
Time: 15:12:54
(UTC+02:00)

Tiros 1 - All Passes

Search period start: 18 May 2024 00:00
Search period end: 28 May 2024 00:00
Orbit: 624 x 657 km, 48.4° (Epoch: 17 May)

Date Brightness Start Highest point End Pass type
(mag) Time Alt. Az. Time Alt. Az. Time Alt. Az.
18 May - 14:01:28 10° SSW 14:05:08 22° SSE 14:08:50 10° E daylight
18 May - 15:41:58 10° WSW 15:46:32 46° SSE 15:51:06 10° E daylight
18 May - 17:23:38 10° W 17:28:16 51° S 17:32:52 10° ESE daylight
18 May - 19:05:43 10° W 19:09:47 28° SSW 19:13:49 10° SSE daylight
19 May - 12:45:58 10° SSE 12:47:43 12° SE 12:49:29 10° ESE daylight
19 May - 14:24:30 10° SW 14:28:47 33° SSE 14:33:04 10° E daylight
19 May - 16:05:44 10° WSW 16:10:24 53° S 16:15:02 10° E daylight
19 May - 17:47:35 10° W 17:52:05 42° SSW 17:56:33 10° SE daylight
19 May - 19:30:08 10° WSW 19:33:22 18° SW 19:36:34 10° S daylight
20 May - 13:07:41 10° SSW 13:11:11 20° SSE 13:14:42 10° E daylight
20 May - 14:48:00 10° WSW 14:52:32 44° SSE 14:57:04 10° E daylight
20 May - 16:29:36 10° W 16:34:15 52° S 16:38:53 10° ESE daylight
20 May - 18:11:38 10° W 18:15:49 31° SSW 18:19:58 10° SE daylight
20 May - 19:56:29 10° SW 19:56:47 10° SW 19:57:05 10° SW daylight
21 May - 11:52:57 10° SSE 11:53:48 10° SE 11:54:39 10° SE daylight
21 May - 13:30:36 10° SW 13:34:48 31° SSE 13:39:00 10° E daylight
21 May - 15:11:43 10° WSW 15:16:22 52° S 15:21:01 10° E daylight
21 May - 16:53:32 10° W 16:58:04 44° SSW 17:02:35 10° ESE daylight
21 May - 18:35:57 10° W 18:39:25 20° SW 18:42:51 10° SSE daylight
22 May - 12:13:56 10° S 12:17:13 19° SE 12:20:31 10° E daylight
22 May - 13:54:01 10° SW 13:58:31 42° SSE 14:03:02 10° E daylight
22 May - 15:35:34 10° W 15:40:13 53° S 15:44:52 10° ESE daylight
22 May - 17:17:33 10° W 17:21:49 33° SSW 17:26:03 10° SE daylight
22 May - 19:01:15 10° WSW 19:02:51 12° SW 19:04:27 10° SSW daylight
23 May - 12:36:42 10° SSW 12:40:48 29° SSE 12:44:54 10° E daylight
23 May - 14:17:42 10° WSW 14:22:19 51° S 14:26:58 10° E daylight
23 May - 15:59:28 10° W 16:04:03 46° SSW 16:08:36 10° ESE daylight
23 May - 17:41:47 10° W 17:45:26 22° SSW 17:49:04 10° SSE daylight
24 May - 11:20:13 10° S 11:23:15 17° SE 11:26:17 10° ESE daylight
24 May - 13:00:02 10° SW 13:04:29 40° SSE 13:08:58 10° E daylight
24 May - 14:41:31 10° WSW 14:46:10 53° S 14:50:50 10° ESE daylight
24 May - 16:23:27 10° W 16:27:48 35° SSW 16:32:07 10° SE daylight
24 May - 18:06:42 10° WSW 18:08:54 13° SW 18:11:05 10° SSW daylight
25 May - 11:42:48 10° SSW 11:46:47 27° SSE 11:50:46 10° E daylight
25 May - 13:23:40 10° WSW 13:28:16 50° S 13:32:53 10° E daylight
25 May - 15:05:24 10° W 15:10:00 48° SSW 15:14:35 10° ESE daylight
25 May - 16:47:36 10° W 16:51:25 24° SSW 16:55:14 10° SSE daylight
26 May - 10:26:33 10° S 10:29:16 15° SE 10:31:59 10° ESE daylight
26 May - 12:06:03 10° SW 12:10:26 38° SSE 12:14:52 10° E daylight
26 May - 13:47:27 10° WSW 13:52:06 53° S 13:56:46 10° ESE daylight
26 May - 15:29:20 10° W 15:33:45 37° SSW 15:38:08 10° SE daylight
26 May - 17:12:17 10° WSW 17:14:56 15° SW 17:17:32 10° S daylight
27 May - 10:48:55 10° SSW 10:52:45 25° SSE 10:56:37 10° E daylight
27 May - 12:29:37 10° WSW 12:34:12 48° S 12:38:48 10° E daylight
27 May - 14:11:19 10° W 14:15:55 49° S 14:20:32 10° ESE daylight
27 May - 15:53:27 10° W 15:57:24 26° SSW 16:01:21 10° SSE daylight
